Showing default

GLOBALSTAR M043, 25874

Orbit data source: Space-Track

GLOBALSTAR M043, 25874 is a payload satellite owned by Globalstar (US) in LEO that was launched on Sun, 25 Jul 1999 UTC via a DELTA 7420-10C launch vehicle from the Air Force Eastern Test Range (AFETR). Payload-class satellites include a variety of spacecraft equipped with specific instruments for various scientific and technological missions. These include communications satellites like Starlink; space stations such as the ISS; scientific satellites like the Hubble; Earth observation satellites from companies like Planet Labs, Umbra, and HawkEye 360; GPS; miniature CubeSats for education and research; and military/defense satellites.

Loading next visibility...
Identifier
25874, 1999-041C
Orbit
LEO
Country
Flag of UnknownUnknown / GLOB
Related business
Manufacturer
SS/Loral
Mission
Non-operational Commercial Communications
Bus & Motor
LS-400, LS-400 AOCS
Mass
450 kg wet, 380 kg dry
Launch date (UTC)
1999-07-25 (26 years ago)
Launch vehicle
DELTA 7420-10C
Launch site
Air Force Eastern Test Range (AFETR)
Object type
Payload
Rocket body
Debris
Shape & HBR
Box + 2 Pan, 6.0 m
Radar Cross Section
5.587 m², Large (>1 m²)

Expand to show TLE details & history
Last TLE update: 21 hours ago

TLE from 21 hours ago
0 GLOBALSTAR M043
1 25874U 99041C   25258.32842439 -.00000051  00000-0  51347-3 0  9996
2 25874  51.9372 233.1919 0013489 103.6800  45.4452 11.25696403133026
Epoch: 2025-09-15T07:52Z
TLE epoch observation values (Epoch: 2025-09-15T07:52:55.867Z)
Latitude
23.80295°
Longitude
-79.68533°
Altitude
2,024.413 km
Speed
6.894 km/s
True Right ascension
02h 12m 19s
True Declination
23° 41' 43"
Sunlit
Object was in full shadow at epoch
Visualization orbit readout
Latitude
Unknown
Longitude
Unknown
Altitude
Unknown
Speed
Unknown
Apparent Right ascension
Unknown
Apparent Declination
Unknown
Sunlit
N/A
Visualization observer readout
Local Sidereal Time
21:52:33
Azimuth
Unknown
Elevation
Unknown
Doppler factor
Unknown
Orbital elements
Apogee altitude
2,043.419 km
Perigee altitude
2,020.73 km
Semi-major axis
8,410.211 km
Eccentricity
0.00135
Inclination
51.9372°
RAAN
233.1919°
Arg. of periapsis
103.68°
True anomaly
45.55548°
Mean anomaly
45.4452°
Eccentric anomaly
45.50032°
Mean motion
2.81406 °/min
Orbital period
127.93 mins
BSTAR
0.00051347
Loading maneuver chart data...
Computing Atmospheric mass density...
Loading historical data...
Loading historical data...
Loading historical data...
Loading historical data...
Loading historical data...
Loading historical data...
Loading historical data...
Other satellites on launch #41 in the year 1999 (1999-07-25 UTC)

Documentation

Showing up to 5 results
|